Skip Page Navigation
NASA JPL Caltech
NASA Logo - Jet Propulsion Laboratory + View the NASA Portal
+ Center for Near-Earth Object Studies
JPL Home Earth Solar System Stars & Galaxies Technology
JPL Solar System Dynamics
BODIES ORBITS EPHEMERIDES TOOLS PHYSICAL DATA DISCOVERY FAQ SITE MAP
IMPORTANT: The SSD Announcement email list is now available. Major changes are coming in the near future, including possible hostname and/or URL changes. To be notified of such changes, subscribe to this email list.

Please visit this page for more details.


JPL Small-Body Database Browser
Search: [ help ]  
300180 (2006 WX42)
Classification: Main-belt Asteroid          SPK-ID: 2300180
Ephemeris | Orbit Diagram | Orbital Elements | Mission Design | Physical Parameters | Discovery Circumstances | Close-Approach Data ]

[ show orbit diagram ]
Orbital Elements at Epoch 2458600.5 (2019-Apr-27.0) TDB
Reference: JPL 11 (heliocentric ecliptic J2000)
 Element Value Uncertainty (1-sigma)   Units 
e .1179062741540521 4.7945e-08  
a 3.175530532063553 3.2971e-08 au
q 2.801115558565505 1.5419e-07 au
i 10.73576809909817 6.4871e-06 deg
node 211.5392447571147 3.1607e-05 deg
peri 237.3221408818067 4.6473e-05 deg
M 53.54063406296029 3.1428e-05 deg
tp 2458293.099991409560
(2018-Jun-23.59999141)
0.00018022 TDB
period 2066.916184862975
5.66
3.219e-05
8.813e-08
d
yr
n .1741725197356593 2.7126e-09 deg/d
Q 3.549945505561602 3.6858e-08 au
  Orbit Determination Parameters
   # obs. used (total)      190  
   data-arc span      6777 days (18.55 yr)  
   first obs. used      2000-10-01  
   last obs. used      2019-04-22  
   planetary ephem.      DE431  
   SB-pert. ephem.      SB431-N16  
   condition code      0  
   norm. resid. RMS      .58229  
   source      ORB  
   producer      Otto Matic  
   solution date      2019-Jul-14 11:01:39  

Additional Information
 Earth MOID = 1.8347 au 
 Jupiter MOID = 1.8267 au 
 T_jup = 3.163 
[ show covariance matrix ]

Ephemeris | Orbit Diagram | Orbital Elements | Mission Design | Physical Parameters | Discovery Circumstances | Close-Approach Data ]

Physical Parameter Table
Parameter Symbol Value Units Sigma Reference Notes
absolute magnitude H 15.9   n/a MPO437337  

300180 (2006 WX42)          Discovered 2006-Nov-16 by Spacewatch at Kitt Peak
Reference: 20111012/Numbers.arcLast Updated: 2011-10-13

[ show close-approach data ]
Alternate Designations
 2006 WX42 = 2005 RT35 
Ephemeris | Orbit Diagram | Orbital Elements | Mission Design | Physical Parameters | Discovery Circumstances | Close-Approach Data ]
ABOUT SSD CREDITS/AWARDS PRIVACY/COPYRIGHT GLOSSARY LINKS
FirstGov 2019-Dec-15 08:53 UT
(server date/time)  
NASA Home Page
Site Manager:   Ryan S. Park
Webmaster  Alan B. Chamberlin